GS-1

Last updated on Tue Apr 07 2026 00:02:59 GMT+0000 (Coordinated Universal Time)

1 56372U 23060C 26094.95600285 -.00000196 00000+0 00000+0 0 9995 2 56372 2.5375 80.6666 0004684 268.4946 274.3200 1.00293396 6805
UTC large
Height (km)
Speed (km/s)
/
Latitude / Longitude
Inclination (degrees)
Orbital Period (minutes)
Azimuth
Elevation
Range (km)
Doppler Factor

Next 0 passes for location: London (51.5072 / 0.1276)

Sorry there are no passes over London.
GS-1